Home   Weather   Cambridge   Past weeks
Flag for USA

Past Weather in Cambridge, Massachusetts, USA — Yesterday and Last 2 Weeks

Now
47 °F

Passing clouds.


Feels Like: 41 °F
Forecast: 60 / 45 °F
Wind: 13 mph from Southwest

Location: Logan International Airport

Current Time: Apr 5, 2020 at 10:33:34 pm

Latest Report: Apr 5, 2020 at 8:54 pm


Visibility: 10 mi

Pressure: 29.97 "Hg

Humidity: 71%

Dew Point: 38 °F

Location of CambridgeLocation

Past Weather in Cambridge — Graph

°F

Cambridge Temperature Yesterday

Maximum temperature yesterday: 43 °F (at 11:54 am)
Minimum temperature yesterday: 39 °F (at 7:54 am)
Average temperature yesterday: 41 °F

High & Low Weather Summary for the Past Weeks

 TemperatureHumidityPressure
High61 °F (Mar 27, 3:54 pm)97% (Mar 23, 10:54 pm)30.75 "Hg (Mar 23, 10:54 pm)
Low26 °F (Mar 22, 6:54 am)15% (Mar 27, 4:54 pm)29.44 "Hg (Apr 3, 3:54 am)
Average40 °F75%30.02 "Hg
* Reported Mar 21 8:54 pm — Apr 5 8:54 pm, Cambridge. Weather by CustomWeather, © 2020

Note: Actual official high and low records may vary slightly from our data, if they occured in-between our weather recording intervals... More about our weather records

Cambridge Weather History for the Previous 24 Hours

Scroll right to see more
 ConditionsComfort  
Time TempWeatherWind HumidityBarometerVisibility
8:54 pm
Sun, Apr 5
47 °FPassing clouds.13 mph71%29.97 "Hg10 mi
7:54 pm49 °FMostly cloudy.13 mph66%29.96 "Hg10 mi
6:54 pm51 °FOvercast.12 mph63%29.97 "Hg10 mi
5:54 pm54 °FOvercast.13 mph62%29.96 "Hg10 mi
4:54 pm50 °FOvercast.6 mph68%29.97 "Hg10 mi
3:54 pm47 °FOvercast.13 mph74%29.98 "Hg10 mi
2:54 pm47 °FOvercast.14 mph71%30.01 "Hg10 mi
1:54 pm46 °FMostly cloudy.12 mph79%30.03 "Hg10 mi
12:54 pm46 °FPartly sunny.10 mph79%30.05 "Hg10 mi
11:54 am47 °FPartly sunny.10 mph77%30.06 "Hg10 mi
10:54 am45 °FPartly sunny.7 mph74%30.08 "Hg10 mi
9:54 am44 °FPartly sunny.6 mph76%30.09 "Hg10 mi
8:54 am42 °FPartly sunny.8 mph76%30.09 "Hg10 mi
7:54 am41 °FPartly sunny.5 mph82%30.08 "Hg10 mi
6:54 am40 °FPartly sunny.3 mph83%30.07 "Hg10 mi
4:54 am41 °FOvercast.3 mph80%30.05 "Hg10 mi
3:54 am40 °FMostly cloudy.3 mph83%30.04 "Hg10 mi
2:54 am40 °FMostly cloudy.3 mph83%30.04 "Hg10 mi
1:54 am39 °FMostly cloudy.No wind86%30.05 "Hg10 mi
12:54 am39 °FOvercast.3 mph86%30.05 "Hg10 mi
11:54 pm
Sat, Apr 4
39 °FOvercast.3 mph86%30.05 "Hg10 mi
10:54 pm39 °FPassing clouds.6 mph86%30.04 "Hg10 mi
Weather by CustomWeather, © 2020

See weather overview

Advertising